DLH405C KJFK-EDDF

Flight info

Callsign DLH405C
Flight time N/A
Altitude 39000
Route DCT MERIT DCT HFD DCT PUT DCT WITCH DCT ALLEX N567A NEEKO/M082F370 DCT 54N050W 55N040W 55N030W 54N020W DCT MALOT/N0478F370 DCT GISTI/N0475F390 DCT LONDU DCT ABAGU DCT BAKUR DCT OKSAW DCT KONAN DCT KOK DCT SPI T180 NIVNU T847 IMCOM IMCOM1D
Aircraft A330/H-L/S

Departure

Time 2026-05-01 15:00
Airport John F. Kennedy International Airport (KJFK)

Arrival

Time N/A
Airport Frankfurt Main Airport (EDDF)
Time Latitude Longitude Altitude Speed Heading
2026-05-01 14:22 40.63792 -73.78192 26 ft 0 kts 84°
2026-05-01 14:51 40.63791 -73.78204 25 ft 2 kts 91°
2026-05-01 14:52 40.63795 -73.78240 25 ft 2 kts 117°
2026-05-01 14:52 40.63802 -73.78259 23 ft 3 kts 132°
2026-05-01 14:52 40.63825 -73.78285 24 ft 0 kts 171°
2026-05-01 14:55 40.63824 -73.78284 26 ft 2 kts 171°
2026-05-01 14:55 40.63780 -73.78280 26 ft 11 kts 174°
2026-05-01 14:55 40.63684 -73.78265 26 ft 14 kts 173°
2026-05-01 14:55 40.63570 -73.78266 26 ft 13 kts 191°
2026-05-01 14:56 40.63503 -73.78225 27 ft 15 kts 133°
2026-05-01 14:56 40.63441 -73.78109 30 ft 18 kts 118°
2026-05-01 14:56 40.63370 -73.77944 27 ft 21 kts 119°
2026-05-01 14:56 40.63299 -73.77785 29 ft 20 kts 121°
2026-05-01 14:57 40.63219 -73.77607 29 ft 27 kts 120°
2026-05-01 14:57 40.63048 -73.77231 27 ft 25 kts 121°
2026-05-01 14:57 40.63015 -73.77195 27 ft 2 kts 158°
2026-05-01 14:58 40.62960 -73.77219 28 ft 11 kts 206°
2026-05-01 14:58 40.62881 -73.77294 28 ft 16 kts 242°
2026-05-01 14:58 40.62896 -73.77383 30 ft 16 kts 294°
2026-05-01 14:58 40.62911 -73.77420 30 ft 0 kts 298°
2026-05-01 14:59 40.63045 -73.77719 32 ft 75 kts 301°
2026-05-01 15:00 40.63993 -73.79840 115 ft 175 kts 300°
2026-05-01 15:00 40.64569 -73.81200 829 ft 170 kts 287°
2026-05-01 15:00 40.64348 -73.82825 1268 ft 185 kts 242°
2026-05-01 15:01 40.63518 -73.84115 2010 ft 193 kts 224°
2026-05-01 15:01 40.62418 -73.85280 2417 ft 212 kts 217°
2026-05-01 15:01 40.61134 -73.86336 2936 ft 221 kts 210°
2026-05-01 15:01 40.59716 -73.87196 3522 ft 231 kts 203°
2026-05-01 15:02 40.58103 -73.87656 3777 ft 252 kts 180°